Location: Ferchesar
(52.6477°N, 12.4298°E)
Time: 22:03:49
(UTC+01:00)

TIGRISAT - Pass Details

Date: 25 October 2021
Orbit: 603 x 689 km, 97.7° (Epoch: 30 November)

Event Time Altitude Azimuth Distance (km) Brightness Sun altitude
Rises 20:18:17 0° 15° (NNE) 2,982 ? -22.5°
Reaches altitude 10° 20:20:33 10° 17° (NNE) 2,053 ? -22.8°
Enters shadow 20:21:44 18° 20° (NNE) 1,577 ? -23.0°
Exits shadow 20:29:01 12° 187° (S) 1,863 ? -24.1°
Drops below altitude 10° 20:29:20 10° 188° (S) 1,986 ? -24.1°
Sets 20:31:29 0° 190° (S) 2,877 ? -24.5°
